This is the latest recevied weather packets stored in our database for station/object HB9EYW-6. If no packets are shown the sender has not sent any weather packets the latest 10 day(s).
| Time | Temp. | Humidity | Pressure | Rain* | Wind** | Luminosity | Snow |
|---|---|---|---|---|---|---|---|
| 1777891205 | 22.22° C | 18% | 0 hPa | 0 mm | - | - | - |
| 1777890905 | 22.78° C | 20% | 0 hPa | 0 mm | - | - | - |
| 1777890605 | 22.78° C | 19% | 0 hPa | 0 mm | - | - | - |
| 1777890305 | 22.78° C | 20% | 0 hPa | 0 mm | - | - | - |
| 1777890005 | 22.78° C | 20% | 0 hPa | 0 mm | - | - | - |
| 1777889705 | 22.78° C | 18% | 0 hPa | 0 mm | - | - | - |
| 1777889405 | 22.78° C | 18% | 0 hPa | 0 mm | - | - | - |
| 1777889105 | 22.22° C | 20% | 0 hPa | 0 mm | - | - | - |
| 1777888805 | 22.22° C | 20% | 0 hPa | 0 mm | - | - | - |
| 1777888505 | 22.22° C | 24% | 0 hPa | 0 mm | - | - | - |
| 1777888205 | 21.67° C | 24% | 0 hPa | 0 mm | - | - | - |
| 1777887905 | 21.11° C | 25% | 0 hPa | 0 mm | - | - | - |
| 1777887605 | 21.11° C | 22% | 0 hPa | 0 mm | - | - | - |
| 1777887305 | 21.11° C | 21% | 0 hPa | 0 mm | - | - | - |
| 1777887005 | 21.67° C | 20% | 0 hPa | 0 mm | - | - | - |
| 1777886705 | 21.67° C | 25% | 0 hPa | 0 mm | - | - | - |
| 1777886405 | 21.11° C | 26% | 0 hPa | 0 mm | - | - | - |
| 1777886105 | 21.11° C | 29% | 0 hPa | 0 mm | - | - | - |
| 1777885805 | 20.56° C | 29% | 0 hPa | 0 mm | - | - | - |
| 1777885505 | 20.56° C | 28% | 0 hPa | 0 mm | - | - | - |
| 1777885205 | 20.56° C | 28% | 0 hPa | 0 mm | - | - | - |
| 1777884905 | 20.56° C | 31% | 0 hPa | 0 mm | - | - | - |
| 1777884605 | 20° C | 33% | 0 hPa | 0 mm | - | - | - |
| 1777884305 | 19.44° C | 34% | 0 hPa | 0 mm | - | - | - |
| 1777884005 | 19.44° C | 34% | 0 hPa | 0 mm | - | - | - |
* Rain latest hour (hover to see other rain measurements)
** Current wind speed in m/s (hover to see current wind gust speed)